Location: Bun Machan
(52.1403°N, 7.3744°W)
Time: 08:36:05
(UTC+00:00)

Lacrosse 5 - Pass Details

Date: 14 July 2020
Orbit: 717 x 720 km, 57.0° (Epoch: 02 August)

Event Time Altitude Azimuth Distance (km) Brightness Sun altitude
Exits shadow 00:10:41 26° 156° (SSE) 1,401 2.8 -16.0°
Maximum altitude 00:11:54 29° 131° (SE) 1,311 2.8 -16.0°
Drops below altitude 10° 00:16:13 10° 73° (ENE) 2,207 4.5 -16.1°
Sets 00:18:51 0° 62° (ENE) 3,131 5.5 -16.1°
